Weather History for Chrysopouli, Greece

Change the Weather History Date:

Monday, March 4, 2013

  Actual Average Record
Temperature  
Mean Temperature 46 °F -  
Max Temperature 55 °F 53 °F 64 °F (2002)
Min Temperature 37 °F 39 °F 32 °F (2003)
Degree Days  
Heating Degree Days 19    
Moisture  
Dew Point 39 °F    
Average Humidity 74    
Maximum Humidity 93    
Minimum Humidity 51    
Precipitation  
Precipitation 0.00 in - - ()
Sea Level Pressure  
Sea Level Pressure 30.07 in    
Wind  
Wind Speed 5 mph ()    
Max Wind Speed 8 mph    
Max Gust Speed -    
Visibility 6.2 miles    
Events      
Averages and records for this station are not official NWS values.
T = Trace of Precipitation, MM = Missing Value Source: Averaged Metar Reports

Daily Weather History Graph

Daily Weather History Graph

Search for Another Location

Airport:

Trip Planner

Search our weather history database for the weather conditions in past years. The results will help you decide how hot, cold, wet, or windy it might be!

Date:

Astronomy

Mar. 04, 2013 Rise Set
Actual Time 6:51 AM EET 6:15 PM EET
Civil Twilight 6:23 AM EET 6:43 PM EET
Nautical Twilight 5:51 AM EET 7:15 PM EET
Astronomical Twilight 5:20 AM EET 7:47 PM EET
Moon 12:41 AM EET (3/4) 10:39 AM EET (3/4)
Length of Visible Light 12h 19m
Length of Day
11h 24m
Waning Gibbous, 56% of the Moon is Illuminated
Mar 4
Waning Gibbous
Mar 4
Last Quarter
Mar 11
New
Mar 19
First Quarter
Mar 27
Full

Hourly Weather History & Observations

Time (EET) Temp. Windchill Dew Point Humidity Pressure Visibility Wind Dir Wind Speed Gust Speed Precip Events Conditions
12:50 AM 41.0 °F - 37.4 °F 87% 29.98 in 6.2 mi Calm Calm - N/A   Partly Cloudy
1:50 AM 41.0 °F 38.0 °F 37.4 °F 87% 29.98 in 6.2 mi ENE 4.6 mph - N/A   Partly Cloudy
2:50 AM 39.2 °F 35.9 °F 35.6 °F 87% 30.01 in 6.2 mi NE 4.6 mph - N/A   Partly Cloudy
3:50 AM 39.2 °F 35.9 °F 35.6 °F 87% 29.95 in 6.2 mi NE 4.6 mph - N/A   Partly Cloudy
4:50 AM 37.4 °F 32.8 °F 33.8 °F 87% 30.01 in 6.2 mi ENE 5.8 mph - N/A   Partly Cloudy
5:20 AM 37.4 °F 32.8 °F 33.8 °F 87% 30.01 in 6.2 mi ENE 5.8 mph - N/A   Partly Cloudy
5:50 AM 37.4 °F 32.8 °F 33.8 °F 87% 30.01 in 6.2 mi NE 5.8 mph - N/A   Partly Cloudy
6:20 AM 37.4 °F 32.8 °F 33.8 °F 87% 30.01 in 6.2 mi NE 5.8 mph - N/A   Partly Cloudy
6:50 AM 37.4 °F 32.8 °F 33.8 °F 87% 30.01 in 6.2 mi ENE 5.8 mph - N/A   Scattered Clouds
7:20 AM 37.4 °F 32.8 °F 33.8 °F 87% 30.01 in 6.2 mi ENE 5.8 mph - N/A   Mostly Cloudy
7:50 AM 39.2 °F 35.9 °F 35.6 °F 87% 30.04 in 6.2 mi ENE 4.6 mph - N/A   Mostly Cloudy
8:20 AM 41.0 °F 38.0 °F 35.6 °F 81% 30.04 in 6.2 mi ENE 4.6 mph - N/A   Mostly Cloudy
8:50 AM 42.8 °F 39.3 °F 37.4 °F 81% 30.06 in 6.2 mi NE 5.8 mph - N/A   Mostly Cloudy
9:20 AM 44.6 °F 40.2 °F 39.2 °F 81% 30.06 in 6.2 mi NE 8.1 mph - N/A   Mostly Cloudy
9:50 AM 46.4 °F 42.4 °F 39.2 °F 76% 30.06 in 6.2 mi ENE 8.1 mph - N/A   Mostly Cloudy
10:20 AM 48.2 °F - 39.2 °F 71% 30.06 in 6.2 mi East 6.9 mph - N/A   Partly Cloudy
10:50 AM 50.0 °F - 39.2 °F 66% 30.06 in 6.2 mi ESE 5.8 mph - N/A   Partly Cloudy
11:20 AM 51.8 °F - 39.2 °F 62% 30.06 in 6.2 mi ESE 5.8 mph - N/A   Partly Cloudy
11:50 AM 51.8 °F - 41.0 °F 67% 30.06 in 6.2 mi ESE 5.8 mph - N/A   Partly Cloudy
12:20 PM 53.6 °F - 41.0 °F 62% 30.06 in 6.2 mi South 6.9 mph - N/A   Partly Cloudy
12:50 PM 53.6 °F - 39.2 °F 58% 30.06 in 6.2 mi SSE 5.8 mph - N/A   Partly Cloudy
1:20 PM 55.4 °F - 39.2 °F 54% 30.06 in 6.2 mi South 5.8 mph - N/A   Partly Cloudy
1:50 PM 55.4 °F - 39.2 °F 54% 30.06 in 6.2 mi SSW 8.1 mph - N/A   Partly Cloudy
2:20 PM 55.4 °F - 39.2 °F 54% 30.06 in 6.2 mi SSW 6.9 mph - N/A   Partly Cloudy
2:50 PM 55.4 °F - 37.4 °F 51% 30.06 in 6.2 mi South 6.9 mph - N/A   Partly Cloudy
3:20 PM 55.4 °F - 37.4 °F 51% 30.06 in 6.2 mi SSE 8.1 mph - N/A   Partly Cloudy
3:50 PM 55.4 °F - 39.2 °F 54% 30.06 in 6.2 mi SSE 6.9 mph - N/A   Partly Cloudy
4:20 PM 53.6 °F - 39.2 °F 58% 30.06 in 6.2 mi South 6.9 mph - N/A   Partly Cloudy
4:50 PM 53.6 °F - 39.2 °F 58% 30.06 in 6.2 mi South 5.8 mph - N/A   Partly Cloudy
5:20 PM 53.6 °F - 39.2 °F 58% 30.06 in 6.2 mi SE 6.9 mph - N/A   Partly Cloudy
5:50 PM 51.8 °F - 39.2 °F 62% 30.06 in 6.2 mi SE 5.8 mph - N/A   Partly Cloudy
6:20 PM 50.0 °F - 39.2 °F 66% 30.09 in 6.2 mi SE 4.6 mph - N/A   Partly Cloudy
6:50 PM 50.0 °F - 41.0 °F 71% 30.12 in 6.2 mi Calm Calm - N/A   Partly Cloudy
7:20 PM 50.0 °F - 41.0 °F 71% 30.12 in 6.2 mi Calm Calm - N/A   Partly Cloudy
7:50 PM 46.4 °F - 42.8 °F 87% 30.12 in 6.2 mi Calm Calm - N/A   Partly Cloudy
8:20 PM 46.4 °F 44.3 °F 42.8 °F 87% 30.12 in 6.2 mi NNE 4.6 mph - N/A   Partly Cloudy
8:50 PM 46.4 °F - 41.0 °F 81% 30.15 in 6.2 mi Calm Calm - N/A   Partly Cloudy
9:20 PM 46.4 °F 44.3 °F 41.0 °F 81% 30.15 in 6.2 mi NNE 4.6 mph - N/A   Partly Cloudy
9:50 PM 44.6 °F 41.4 °F 42.8 °F 93% 30.18 in 6.2 mi NE 5.8 mph - N/A   Partly Cloudy
10:20 PM 44.6 °F 41.4 °F 42.8 °F 93% 30.18 in 6.2 mi NE 5.8 mph - N/A   Partly Cloudy
10:50 PM 44.6 °F 40.7 °F 41.0 °F 87% 30.18 in 6.2 mi NNE 6.9 mph - N/A   Partly Cloudy
11:50 PM 42.8 °F 38.6 °F 39.2 °F 87% 30.21 in 6.2 mi NE 6.9 mph - N/A   Partly Cloudy